• In Portugal
  • List of Countries
  • For 7 days
  • Water Temperature
  • Satellite Maps
  • Weather Map
  • Weather Widgets
  • user-avatar
    Login

    Hourly Weather Tsumeb

    Today, 18 June, Monday

    Time Temperature Precipitation Wind Pressure Humidity
    00:00 +15°C° 0 mm 2 mps 656 mmHg 25%
    01:00 +14°C° 0 mm 2 mps 656 mmHg 27%
    02:00 +14°C° 0 mm 2 mps 655 mmHg 30%
    03:00 +13°C° 0 mm 2 mps 655 mmHg 32%
    04:00 +13°C° 0 mm 1 mps 655 mmHg 35%
    05:00 +13°C° 0 mm 1 mps 655 mmHg 32%
    06:00 +13°C° 0 mm 1 mps 656 mmHg 29%
    07:00 +14°C° 0 mm 2 mps 656 mmHg 26%
    08:00 +17°C° 0 mm 2 mps 657 mmHg 22%
    09:00 +21°C° 0 mm 2 mps 658 mmHg 18%
    10:00 +25°C° 0 mm 3 mps 659 mmHg 14%
    11:00 +26°C° 0 mm 3 mps 659 mmHg 13%
    12:00 +27°C° 0 mm 3 mps 658 mmHg 11%
    13:00 +28°C° 0 mm 3 mps 658 mmHg 10%
    14:00 +28°C° 0 mm 2 mps 657 mmHg 10%
    15:00 +28°C° 0 mm 2 mps 657 mmHg 10%
    16:00 +28°C° 0 mm 2 mps 656 mmHg 10%
    17:00 +25°C° 0 mm 2 mps 656 mmHg 15%
    18:00 +22°C° 0 mm 1 mps 655 mmHg 20%
    19:00 +19°C° 0 mm 1 mps 655 mmHg 25%
    20:00 +18°C° 0 mm 1 mps 655 mmHg 24%
    21:00 +18°C° 0 mm 1 mps 655 mmHg 24%
    22:00 +16°C° 0 mm 2 mps 655 mmHg 23%
    23:00 +16°C° 0 mm 2 mps 655 mmHg 24%

    Tomorrow, 19 June, Tuesday

    Time Temperature Precipitation Wind Pressure Humidity
    00:00 +15°C° 0 mm 2 mps 655 mmHg 25%
    01:00 +14°C° 0 mm 1 mps 655 mmHg 25%
    02:00 +14°C° 0 mm 2 mps 655 mmHg 27%
    03:00 +14°C° 0 mm 2 mps 654 mmHg 28%
    04:00 +13°C° 0 mm 2 mps 654 mmHg 30%
    05:00 +13°C° 0 mm 2 mps 655 mmHg 29%
    06:00 +14°C° 0 mm 2 mps 655 mmHg 27%
    07:00 +14°C° 0 mm 2 mps 655 mmHg 26%
    08:00 +17°C° 0 mm 2 mps 656 mmHg 22%
    09:00 +21°C° 0 mm 3 mps 657 mmHg 18%
    10:00 +25°C° 0 mm 3 mps 658 mmHg 14%
    11:00 +26°C° 0 mm 3 mps 658 mmHg 13%
    12:00 +27°C° 0 mm 3 mps 657 mmHg 12%
    13:00 +28°C° 0 mm 3 mps 657 mmHg 11%
    14:00 +28°C° 0 mm 2 mps 657 mmHg 10%
    15:00 +28°C° 0 mm 2 mps 656 mmHg 10%
    16:00 +28°C° 0 mm 2 mps 656 mmHg 10%
    17:00 +25°C° 0 mm 2 mps 655 mmHg 14%
    18:00 +23°C° 0 mm 2 mps 655 mmHg 18%
    19:00 +19°C° 0 mm 2 mps 655 mmHg 22%
    20:00 +18°C° 0 mm 2 mps 655 mmHg 21%
    21:00 +18°C° 0 mm 2 mps 655 mmHg 19%
    22:00 +17°C° 0 mm 2 mps 655 mmHg 18%
    23:00 +16°C° 0 mm 2 mps 655 mmHg 20%

    Day after tomorrow, 20 June, Wednesday

    Time Temperature Precipitation Wind Pressure Humidity
    00:00 +16°C° 0 mm 2 mps 655 mmHg 23%
    01:00 +15°C° 0 mm 2 mps 655 mmHg 25%
    02:00 +15°C° 0 mm 2 mps 655 mmHg 25%
    03:00 +14°C° 0 mm 2 mps 654 mmHg 26%
    04:00 +14°C° 0 mm 2 mps 654 mmHg 26%
    05:00 +14°C° 0 mm 2 mps 655 mmHg 26%
    06:00 +14°C° 0 mm 2 mps 655 mmHg 25%
    07:00 +14°C° 0 mm 2 mps 656 mmHg 25%
    08:00 +18°C° 0 mm 3 mps 657 mmHg 21%
    09:00 +21°C° 0 mm 4 mps 658 mmHg 18%
    10:00 +26°C° 0 mm 4 mps 659 mmHg 14%
    11:00 +27°C° 0 mm 4 mps 659 mmHg 13%
    12:00 +28°C° 0 mm 4 mps 658 mmHg 12%
    13:00 +29°C° 0 mm 3 mps 658 mmHg 11%
    14:00 +29°C° 0 mm 3 mps 657 mmHg 12%
    15:00 +29°C° 0 mm 3 mps 657 mmHg 12%
    16:00 +29°C° 0 mm 3 mps 657 mmHg 12%
    17:00 +26°C° 0 mm 2 mps 656 mmHg 15%
    18:00 +23°C° 0 mm 2 mps 656 mmHg 18%
    19:00 +20°C° 0 mm 2 mps 656 mmHg 21%
    20:00 +19°C° 0 mm 2 mps 656 mmHg 22%
    21:00 +18°C° 0 mm 2 mps 656 mmHg 24%
    22:00 +17°C° 0 mm 2 mps 657 mmHg 25%
    23:00 +17°C° 0 mm 2 mps 656 mmHg 28%

    21 June, Thursday

    Time Temperature Precipitation Wind Pressure Humidity
    00:00 +16°C° 0 mm 2 mps 656 mmHg 30%
    01:00 +16°C° 0 mm 2 mps 656 mmHg 32%
    02:00 +15°C° 0 mm 2 mps 656 mmHg 33%
    03:00 +15°C° 0 mm 2 mps 656 mmHg 34%
    04:00 +14°C° 0 mm 2 mps 656 mmHg 35%
    05:00 +15°C° 0 mm 2 mps 656 mmHg 34%
    06:00 +15°C° 0 mm 2 mps 657 mmHg 34%
    07:00 +15°C° 0 mm 2 mps 657 mmHg 33%
    08:00 +18°C° 0 mm 3 mps 658 mmHg 28%
    09:00 +22°C° 0 mm 4 mps 659 mmHg 23%
    10:00 +26°C° 0 mm 5 mps 660 mmHg 17%
    11:00 +27°C° 0 mm 4 mps 660 mmHg 16%
    12:00 +28°C° 0 mm 4 mps 659 mmHg 14%
    13:00 +29°C° 0 mm 4 mps 659 mmHg 12%
    14:00 +29°C° 0 mm 4 mps 658 mmHg 12%
    15:00 +29°C° 0 mm 4 mps 658 mmHg 12%
    16:00 +29°C° 0 mm 3 mps 658 mmHg 12%
    17:00 +26°C° 0 mm 3 mps 657 mmHg 15%
    18:00 +22°C° 0 mm 3 mps 657 mmHg 18%
    19:00 +20°C° 0 mm 2 mps 657 mmHg 21%
    20:00 +19°C° 0 mm 2 mps 657 mmHg 23%
    21:00 +18°C° 0 mm 2 mps 657 mmHg 25%
    22:00 +18°C° 0 mm 2 mps 658 mmHg 26%
    23:00 +17°C° 0 mm 2 mps 657 mmHg 28%

    22 June, Friday

    Time Temperature Precipitation Wind Pressure Humidity
    00:00 +17°C° 0 mm 2 mps 657 mmHg 30%
    01:00 +16°C° 0 mm 3 mps 657 mmHg 31%
    02:00 +16°C° 0 mm 3 mps 657 mmHg 32%
    03:00 +14°C° 0 mm 3 mps 657 mmHg 33%
    04:00 +14°C° 0 mm 3 mps 657 mmHg 34%
    05:00 +14°C° 0 mm 3 mps 657 mmHg 35%
    06:00 +14°C° 0 mm 3 mps 658 mmHg 35%
    07:00 +14°C° 0 mm 3 mps 658 mmHg 35%
    08:00 +19°C° 0 mm 4 mps 659 mmHg 31%
    09:00 +22°C° 0 mm 5 mps 659 mmHg 26%
    10:00 +26°C° 0 mm 6 mps 660 mmHg 22%
    11:00 +27°C° 0 mm 5 mps 660 mmHg 21%
    12:00 +28°C° 0 mm 5 mps 659 mmHg 19%
    13:00 +29°C° 0 mm 5 mps 658 mmHg 18%
    14:00 +29°C° 0 mm 5 mps 658 mmHg 18%
    15:00 +29°C° 0 mm 5 mps 658 mmHg 18%
    16:00 +29°C° 0 mm 4 mps 657 mmHg 18%
    17:00 +26°C° 0 mm 4 mps 657 mmHg 22%
    18:00 +24°C° 0 mm 3 mps 657 mmHg 26%
    19:00 +20°C° 0 mm 2 mps 657 mmHg 30%
    20:00 +20°C° 0 mm 2 mps 657 mmHg 32%
    21:00 +19°C° 0 mm 2 mps 657 mmHg 33%
    22:00 +18°C° 0 mm 2 mps 657 mmHg 35%
    23:00 +18°C° 0 mm 2 mps 657 mmHg 36%

    23 June, Saturday

    Time Temperature Precipitation Wind Pressure Humidity
    00:00 +17°C° 0 mm 2 mps 657 mmHg 37%
    01:00 +16°C° 0 mm 2 mps 656 mmHg 39%
    02:00 +16°C° 0 mm 2 mps 656 mmHg 40%
    03:00 +16°C° 0 mm 2 mps 656 mmHg 42%
    04:00 +16°C° 0 mm 2 mps 656 mmHg 43%
    05:00 +16°C° 0 mm 2 mps 656 mmHg 42%
    06:00 +16°C° 0 mm 2 mps 657 mmHg 42%
    07:00 +16°C° 0 mm 3 mps 657 mmHg 41%
    08:00 +19°C° 0 mm 3 mps 658 mmHg 36%
    09:00 +22°C° 0 mm 4 mps 659 mmHg 31%
    10:00 +25°C° 0 mm 4 mps 659 mmHg 26%
    11:00 +26°C° 0 mm 4 mps 659 mmHg 25%
    12:00 +27°C° 0 mm 3 mps 658 mmHg 24%
    13:00 +28°C° 0 mm 3 mps 658 mmHg 22%
    14:00 +28°C° 0 mm 3 mps 657 mmHg 22%
    15:00 +28°C° 0 mm 2 mps 657 mmHg 22%
    16:00 +27°C° 0 mm 2 mps 657 mmHg 22%
    17:00 +25°C° 0 mm 2 mps 657 mmHg 29%
    18:00 +21°C° 0 mm 2 mps 656 mmHg 35%
    19:00 +20°C° 0 mm 1 mps 656 mmHg 41%
    20:00 +19°C° 0 mm 2 mps 656 mmHg 40%
    21:00 +18°C° 0 mm 2 mps 656 mmHg 39%
    22:00 +18°C° 0 mm 2 mps 656 mmHg 38%
    23:00 +17°C° 0 mm 2 mps 656 mmHg 41%
    Show more